This demonstration page uses our WeatherBlox Daily Observations layout. Learn more.

Left ArrowRight Arrow

Hourly Observations for July 22, 2020

Temp ( °F °C ) Dew Point ( °F °C ) Humidity (%) Winds ( mph kmh ) Pressure ( in mb ) Visibility ( mi km ) Precip ( " mm )
12:53 am 00:53 Clear 72 22.2 64 17.8 76 76 E 6 9 30.00 1016 10 16 0.00 0.00
1:53 am 01:53 Clear 72 22.2 62 16.7 71 71 E 9 15 29.98 1015 10 16 0.00 0.00
2:53 am 02:53 Clear 71 21.7 62 16.7 73 73 ESE 9 15 29.99 1016 10 16 0.00 0.00
3:53 am 03:53 Clear 71 21.7 61 16.1 71 71 E 7 11 29.98 1015 10 16 0.00 0.00
4:53 am 04:53 Mostly Cloudy 69 20.6 63 17.2 81 81 N 3 6 30.00 1016 10 16 0.00 0.00
5:53 am 05:53 Mostly Cloudy 69 20.6 63 17.2 81 81 ESE 3 6 30.01 1016 10 16 0.00 0.00
6:53 am 06:53 Mostly Sunny 69 20.6 61 16.1 76 76 E 7 11 30.01 1016 10 16 0.00 0.00
7:53 am 07:53 Sunny 70 21.1 62 16.7 76 76 SE 9 15 30.01 1016 10 16 0.00 0.00
8:53 am 08:53 Partly Cloudy 73 22.8 63 17.2 71 71 SE 12 19 30.02 1017 10 16 0.00 0.00
9:53 am 09:53 Cloudy 72 22.2 65 18.3 79 79 SE 9 15 30.03 1017 10 16 0.00 0.00
10:53 am 10:53 Mostly Sunny 75 23.9 66 18.9 74 74 SE 6 9 30.03 1017 10 16 0.00 0.00
11:53 am 11:53 Mostly Cloudy 78 25.6 68 20 71 71 SE 10 17 29.99 1016 10 16 0.00 0.00
12:53 pm 12:53 Sunny 80 26.7 69 20.6 69 69 ESE 10 17 30.00 1016 10 16 0.00 0.00
1:53 pm 13:53 Partly Cloudy 81 27.2 70 21.1 69 69 SE 16 26 29.99 1016 10 16 0.00 0.00
2:33 pm 14:33 Mostly Cloudy 82 27.8 71 21.7 69 69 SE 12 19 29.92 1013 10 16 0.00 0.00
2:53 pm 14:53 Mostly Cloudy 85 29.4 71 21.7 63 63 ESE 14 22 29.98 1015 10 16 0.00 0.00
3:53 pm 15:53 Mostly Sunny 85 29.4 72 22.2 65 65 SE 16 26 29.96 1015 10 16 0.00 0.00
4:53 pm 16:53 Sunny 86 30 72 22.2 63 63 SSE 12 19 29.94 1014 10 16 0.00 0.00
5:53 pm 17:53 Sunny 85 29.4 72 22.2 65 65 SE 17 28 29.93 1013 10 16 0.00 0.00
6:53 pm 18:53 Mostly Sunny 84 28.9 73 22.8 70 70 SE 15 24 29.92 1013 10 16 0.00 0.00
7:53 pm 19:53 Sunny 83 28.3 72 22.2 70 70 SE 10 17 29.93 1014 10 16 0.00 0.00
8:53 pm 20:53 Sunny 80 26.7 72 22.2 76 76 SE 10 17 29.94 1014 10 16 0.00 0.00
9:53 pm 21:53 Mostly Clear 78 25.6 73 22.8 85 85 ESE 9 15 29.95 1014 10 16 0.00 0.00
10:53 pm 22:53 Clear 76 24.4 72 22.2 88 88 SE 13 20 29.97 1015 10 16 0.00 0.00
11:53 pm 23:53 Clear 75 23.9 71 21.7 88 88 SE 10 17 29.98 1015 10 16 0.00 0.00

Powered by AerisWeather